User: anonymous   Login
Location: Bonny Doon Airfield
(37.0704°N, 122.1252°W)
Time: 02:53:00
(UTC-07:00)
Language:

BREEZE M DEB (TANK) - Orbit

View from above orbital plane
View from above orbital plane
View from above satellite
View from above satellite

Ground track
Ground track

The orbit data is extracted from the following two-line orbital elements,

1 33437U 08057B   15240.50417770  .00002036  00000-0  38185-3 0  9992
2 33437 049.5638 088.9301 5015913 317.3749 017.5693 05.58110358136999
Epoch (UTC): 28 August 2015 12:06:00
Eccentricity: 0.5015913
inclination: 49.5638°
perigee height: 313 km
apogee height: 13781 km
right ascension of ascending node: 88.9301°
argument of perigee: 317.3749°
revolutions per day: 5.58110358
mean anomaly at epoch: 17.5693°
orbit number at epoch: 13699

The dashed part of the orbit path shows where the satellite is in the earth's shadow,  

DLR